Deering, AK

12:27 AM AKST on February 24, 2017 (GMT -0900)
Deering (New)

Weather History for PADE - October, 2012

Change the Weather History Date:

Tuesday, October 23, 2012

  Actual Average (PAOT) Record (PAOT)
Temperature  
Mean Temperature 20 °F -  
Max Temperature 27 °F 22 °F 41 °F (2002)
Min Temperature 14 °F 12 °F -8 °F (1970)
Degree Days  
Heating Degree Days 44    
Moisture  
Dew Point 21 °F    
Average Humidity 93    
Maximum Humidity 100    
Minimum Humidity 86    
Precipitation  
Precipitation 0.00 in - - ()
Sea Level Pressure  
Sea Level Pressure 30.66 in    
Wind  
Wind Speed 2 mph (SSE)    
Max Wind Speed 7 mph    
Max Gust Speed -    
Visibility 4 miles    
Events Fog , Snow    
Averages and records for this station are not official NWS values.
T = Trace of Precipitation, MM = Missing Value Source: NWS Daily Summary

Daily Weather History Graph

Daily Weather History Graph

Search for Another Location

Airport or City:

Trip Planner

Search our weather history database for the weather conditions in past years. The results will help you decide how hot, cold, wet, or windy it might be!

Date:

Astronomy

Oct. 23, 2012 Rise Set
Actual Time 10:17 AM AKDT 6:51 PM AKDT
Civil Twilight 9:22 AM AKDT 7:46 PM AKDT
Nautical Twilight 8:22 AM AKDT 8:46 PM AKDT
Astronomical Twilight 7:22 AM AKDT 9:45 PM AKDT
Moon 5:39 PM AKDT (10/23) 2:05 AM AKDT (10/23)
Length of Visible Light 10h 24m
Length of Day
8h 34m
Waxing Gibbous, 68% of the Moon is Illuminated
Oct 23
Waxing Gibbous
Oct 29
Full
Nov 6
Last Quarter
Nov 13
New
Nov 20
First Quarter

Hourly Weather History & Observations

Time (AKDT) Temp. Windchill Dew Point Humidity Pressure Visibility Wind Dir Wind Speed Gust Speed Precip Events Conditions
12:53 AM 17.1 °F 10.0 °F 14.0 °F 88% 30.56 in 10.0 mi SW 4.6 mph - N/A   Overcast
1:53 AM 21.9 °F 17.2 °F 19.0 °F 89% 30.56 in 10.0 mi ENE 3.5 mph - N/A   Overcast
2:53 AM 19.9 °F - 19.0 °F 96% 30.58 in 10.0 mi Calm Calm - N/A   Overcast
3:11 AM 19.4 °F - 19.4 °F 100% 30.57 in 10.0 mi Calm Calm - N/A   Overcast
4:53 AM 25.0 °F - 23.0 °F 92% 30.59 in 10.0 mi Calm Calm - N/A   Overcast
5:53 AM 27.0 °F 23.0 °F 25.0 °F 92% 30.59 in 10.0 mi SSE 3.5 mph - N/A   Overcast
6:53 AM 27.0 °F 20.5 °F 26.1 °F 96% 30.60 in 5.0 mi SSE 5.8 mph - N/A   Overcast
7:53 AM 26.1 °F 18.4 °F 25.0 °F 96% 30.62 in 10.0 mi SSW 6.9 mph - N/A   Overcast
8:53 AM 26.1 °F - 26.1 °F 100% 30.63 in 10.0 mi Calm Calm - N/A   Overcast
9:53 AM 26.1 °F - 24.1 °F 92% 30.65 in 9.0 mi Calm Calm - N/A   Overcast
10:06 AM 26.6 °F - 24.8 °F 93% 30.65 in 8.0 mi Calm Calm - N/A   Overcast
10:53 AM 27.0 °F - 26.1 °F 96% 30.64 in 3.0 mi Calm Calm - N/A   Overcast
11:03 AM 26.6 °F - 26.6 °F 100% 30.64 in 2.5 mi Calm Calm - N/A   Overcast
11:17 AM 26.6 °F 22.6 °F 26.6 °F 100% 30.64 in 1.5 mi SSE 3.5 mph - N/A   Overcast
11:36 AM 26.6 °F 21.2 °F 26.6 °F 100% 30.64 in 1.0 mi SSE 4.6 mph - 0.00 in Snow Light Snow
11:53 AM 27.0 °F 23.0 °F 25.0 °F 92% 30.65 in 1.5 mi SSE 3.5 mph - 0.00 in Snow Light Snow
12:06 PM 26.6 °F 22.6 °F 24.8 °F 93% 30.65 in 3.0 mi SSE 3.5 mph - 0.00 in   Overcast
12:53 PM 25.0 °F 19.3 °F 23.0 °F 92% 30.66 in 10.0 mi SSW 4.6 mph - 0.00 in   Overcast
1:50 PM 24.8 °F 20.5 °F 24.8 °F 100% 30.67 in 5.0 mi SSE 3.5 mph - N/A   Overcast
1:53 PM 25.0 °F - 24.1 °F 96% 30.68 in 3.0 mi Calm Calm - N/A   Overcast
2:37 PM 24.8 °F 19.1 °F 23.0 °F 93% 30.67 in 2.5 mi SE 4.6 mph - N/A   Overcast
2:53 PM 24.1 °F 18.2 °F 23.0 °F 96% 30.67 in 2.0 mi SE 4.6 mph - N/A   Overcast
3:25 PM 24.8 °F - 24.8 °F 100% 30.68 in 4.0 mi Calm Calm - N/A   Overcast
3:30 PM 24.8 °F - 23.0 °F 93% 30.68 in 1.5 mi Calm Calm - N/A   Overcast
3:38 PM 24.8 °F - 24.8 °F 100% 30.68 in 0.2 mi Calm Calm - N/A Fog Light Freezing Fog
3:53 PM 25.0 °F - 24.1 °F 96% 30.67 in 0.2 mi Calm Calm - N/A Fog Light Freezing Fog
4:38 PM 24.8 °F 19.1 °F 21.2 °F 86% 30.66 in 1.5 mi SE 4.6 mph - 0.00 in   Overcast
4:53 PM 24.1 °F 18.2 °F 23.0 °F 96% 30.66 in 4.0 mi SSE 4.6 mph - 0.00 in   Overcast
5:15 PM 24.8 °F 20.5 °F 23.0 °F 93% 30.67 in 1.8 mi SSE 3.5 mph - N/A   Overcast
5:30 PM 24.8 °F 20.5 °F 23.0 °F 93% 30.67 in 0.2 mi SE 3.5 mph - N/A Fog Light Freezing Fog
5:53 PM 25.0 °F - 24.1 °F 96% 30.69 in 0.2 mi Calm Calm - N/A Fog Light Freezing Fog
6:16 PM 24.8 °F - 21.2 °F 86% 30.69 in 2.0 mi Calm Calm - 0.00 in Snow Light Snow
6:23 PM 24.8 °F - 21.2 °F 86% 30.69 in 8.0 mi Calm Calm - 0.00 in   Overcast
6:48 PM 21.2 °F - 19.4 °F 93% 30.69 in 1.8 mi Calm Calm - 0.00 in   Overcast
6:53 PM 21.0 °F - 19.0 °F 92% 30.69 in 0.5 mi Calm Calm - 0.00 in Fog Light Freezing Fog
7:44 PM 17.6 °F - 15.8 °F 93% 30.68 in 1.2 mi Calm Calm - N/A   Overcast
7:53 PM 17.1 °F - 14.0 °F 88% 30.69 in 0.5 mi Calm Calm - N/A Fog Light Freezing Fog
8:08 PM 14.0 °F 8.2 °F 12.2 °F 93% 30.69 in 1.0 mi SW 3.5 mph - N/A   Mist
8:16 PM 17.6 °F - 15.8 °F 93% 30.69 in 0.5 mi Calm Calm - N/A Fog Light Freezing Fog
8:38 PM 14.0 °F - 12.2 °F 93% 30.69 in 2.0 mi Calm Calm - N/A   Mostly Cloudy
8:44 PM 14.0 °F - 10.4 °F 86% 30.69 in 5.0 mi Calm Calm - N/A   Scattered Clouds
8:53 PM 14.0 °F - 12.0 °F 92% 30.70 in 3.0 mi Calm Calm - N/A   Partly Cloudy
8:59 PM 14.0 °F - 12.2 °F 93% 30.70 in 1.8 mi Calm Calm - N/A   Partly Cloudy
9:12 PM 17.6 °F - 15.8 °F 93% 30.70 in 1.2 mi Calm Calm - N/A   Mostly Cloudy
9:27 PM 15.8 °F - 12.2 °F 86% 30.70 in 3.0 mi Calm Calm - N/A   Overcast
9:42 PM 15.8 °F - 12.2 °F 86% 30.69 in 1.8 mi Calm Calm - N/A   Overcast
9:53 PM 16.0 °F 10.4 °F 14.0 °F 92% 30.70 in 0.5 mi South 3.5 mph - N/A Fog Light Freezing Fog
10:53 PM 19.9 °F - 18.0 °F 92% 30.71 in 0.2 mi Calm Calm - N/A Fog Light Freezing Fog
11:53 PM 19.9 °F - 18.0 °F 92% 30.70 in 0.5 mi Calm Calm - N/A Fog Light Freezing Fog